Home   Weather   Kielce   Past weeks
Flag for Poland

Past Weather in Kielce, Poland — Yesterday and Last 2 Weeks

Now
75 °F

Overcast.


Feels Like: 76 °F
Forecast: 77 / 64 °F
Wind: 2 mph from South

Location: Kielce

Current Time: Jun 20, 2019 at 9:21:15 pm

Latest Report: Jun 20, 2019 at 8:00 pm


Visibility: 25 mi

Pressure: 29.86 "Hg

Humidity: 72%

Dew Point: 65 °F

Location of KielceLocation

Past Weather in Kielce — Graph

°F

Kielce Temperature Yesterday

Maximum temperature yesterday: 84 °F (at 3:00 pm)
Minimum temperature yesterday: 63 °F (at 5:00 pm)
Average temperature yesterday: 71 °F

High & Low Weather Summary for the Past Weeks

 TemperatureHumidityPressure
High89 °F (Jun 15, 3:00 pm)100% (Jun 8, 5:00 am)30.33 "Hg (Jun 8, 5:00 am)
Low55 °F (Jun 9, 5:00 am)38% (Jun 11, 5:00 pm)29.82 "Hg (Jun 20, 6:00 pm)
Average72 °F68%30.01 "Hg
* Reported Jun 5 8:00 pm — Jun 20 8:00 pm, Kielce. Weather by CustomWeather, © 2019

Note: Actual official high and low records may vary slightly from our data, if they occured in-between our weather recording intervals... More about our weather records

Advertising

Kielce Weather History for the Previous 24 Hours

Scroll right to see more
 ConditionsComfort  
Time TempWeatherWind HumidityBarometerVisibility
8:00 pm
Thu, Jun 20
75 °FOvercast.2 mph72%29.86 "Hg25 mi
7:00 pm76 °FOvercast.2 mph69%29.83 "Hg25 mi
6:00 pm77 °FPartly sunny.2 mph67%29.82 "Hg19 mi
5:00 pm78 °FScattered clouds.2 mph61%29.83 "Hg22 mi
4:00 pm77 °FOvercast.2 mph71%29.84 "Hg15 mi
3:00 pm80 °FThunderstorms. Overcast.1 mph60%29.84 "Hg17 mi
2:00 pm78 °FThunderstorms. Overcast.2 mph67%29.86 "Hg16 mi
1:00 pm77 °FOvercast.2 mph67%29.88 "Hg17 mi
12:00 pm76 °FOvercast.2 mph68%29.89 "Hg16 mi
11:00 am73 °FSprinkles. Overcast.2 mph74%29.89 "Hg12 mi
10:00 am74 °FOvercast.1 mph73%29.88 "Hg16 mi
9:00 am72 °FOvercast.1 mph79%29.88 "Hg12 mi
8:00 am71 °FOvercast.1 mph86%29.88 "Hg11 mi
7:00 am67 °FFog.1 mph94%29.88 "Hg2 mi
6:00 am62 °FFog.No wind96%29.88 "Hg2 mi
5:00 am61 °FFog.No wind99%29.88 "Hg3 mi
2:00 am60 °FOvercast.2 mph98%29.89 "Hg9 mi
11:00 pm
Wed, Jun 19
63 °FPassing clouds.1 mph97%29.90 "Hg9 mi
10:00 pm66 °FPassing clouds.1 mph85%29.88 "Hg22 mi
9:00 pm68 °FOvercast.1 mph80%29.89 "Hg28 mi
Weather by CustomWeather, © 2019

See weather overview